This demonstration page uses our WeatherBlox Daily Observations layout. Learn more.

Left ArrowRight Arrow

Hourly Observations for June 14, 2015

Temp ( °F °C ) Dew Point ( °F °C ) Humidity (%) Winds ( mph kmh ) Pressure ( in mb ) Visibility ( mi km ) Precip ( " mm )
12:15 am 00:15 Cloudy 77 25 73 23 89 89 WNW 9 15 30.06 1018 10 16 0.00 0.00
12:35 am 00:35 Cloudy 77 25 73 23 89 89 Calm 30.06 1018 10 16 0.00 0.00
12:55 am 00:55 Partly Cloudy 79 26 73 23 84 84 SW 10 17 30.06 1018 10 16 0.00 0.00
1:15 am 01:15 Partly Cloudy 77 25 73 23 89 89 WNW 10 17 30.06 1018 10 16 0.00 0.00
1:35 am 01:35 Partly Cloudy 77 25 73 23 89 89 Calm 30.06 1018 10 16 0.00 0.00
1:55 am 01:55 Clear 77 25 72 22 83 83 WNW 3 6 30.03 1017 10 16 0.00 0.00
2:15 am 02:15 Partly Cloudy 75 24 72 22 89 89 N 3 6 30.06 1018 10 16 0.00 0.00
2:35 am 02:35 Partly Cloudy 75 24 72 22 89 89 Calm 30.06 1018 10 16 0.00 0.00
2:55 am 02:55 Partly Cloudy 73 23 72 22 94 94 Calm 30.03 1017 10 16 0.00 0.00
3:15 am 03:15 Mostly Cloudy 73 23 72 22 94 94 NW 3 6 30.06 1018 10 16 0.00 0.00
3:35 am 03:35 Partly Cloudy 73 23 72 22 94 94 Calm 30.06 1018 10 16 0.00 0.00
3:55 am 03:55 Partly Cloudy 73 23 72 22 94 94 NW 3 6 30.06 1018 10 16 0.00 0.00
4:15 am 04:15 Partly Cloudy 73 23 72 22 94 94 NW 6 9 30.06 1018 10 16 0.00 0.00
4:35 am 04:35 Cloudy 73 23 72 22 94 94 Calm 30.06 1018 10 16 0.00 0.00
4:55 am 04:55 Mostly Cloudy 73 23 72 22 94 94 Calm 30.06 1018 10 16 0.00 0.00
5:15 am 05:15 Partly Cloudy 73 23 72 22 94 94 NNW 3 6 30.06 1018 10 16 0.00 0.00
5:35 am 05:35 Clear 73 23 72 22 94 94 NNE 6 9 30.06 1018 10 16 0.00 0.00
5:55 am 05:55 Sunny 72 22 72 22 100 100 Calm 30.06 1018 10 16 0.00 0.00
6:15 am 06:15 Sunny 73 23 72 22 94 94 Calm 30.06 1018 10 16 0.00 0.00
6:35 am 06:35 Sunny 73 23 72 22 94 94 Calm 30.06 1018 10 16 0.00 0.00
6:55 am 06:55 Sunny 73 23 73 23 100 100 NNW 3 6 30.06 1018 10 16 0.00 0.00
7:15 am 07:15 Sunny 75 24 73 23 94 94 Calm 30.09 1019 10 16 0.00 0.00
7:35 am 07:35 Sunny 77 25 73 23 89 89 WNW 6 9 30.09 1019 10 16 0.00 0.00
7:55 am 07:55 Sunny 79 26 73 23 84 84 Calm 30.09 1019 10 16 0.00 0.00
8:15 am 08:15 Sunny 79 26 73 23 84 84 Calm 30.09 1019 10 16 0.00 0.00
8:35 am 08:35 Sunny 81 27 72 22 74 74 N 3 6 30.09 1019 10 16 0.00 0.00
8:55 am 08:55 Sunny 81 27 72 22 74 74 Calm 30.09 1019 10 16 0.00 0.00
9:15 am 09:15 Sunny 82 28 72 22 70 70 W 3 6 30.09 1019 10 16 0.00 0.00
9:35 am 09:35 Sunny 82 28 70 21 66 66 NNW 7 11 30.09 1019 10 16 0.00 0.00
9:55 am 09:55 Sunny 84 29 72 22 66 66 Calm 30.09 1019 10 16 0.00 0.00
10:15 am 10:15 Sunny 84 29 72 22 66 66 WNW 6 9 30.09 1019 10 16 0.00 0.00
10:35 am 10:35 Sunny 86 30 72 22 62 62 NNW 6 9 30.09 1019 10 16 0.00 0.00
10:55 am 10:55 Sunny 86 30 72 22 62 62 NW 9 15 30.09 1019 10 16 0.00 0.00
11:15 am 11:15 Sunny 86 30 72 22 62 62 NW 3 6 30.09 1019 10 16 0.00 0.00
11:35 am 11:35 Partly Cloudy 88 31 72 22 59 59 N 5 7 30.03 1017 10 16 0.00 0.00
11:55 am 11:55 Partly Cloudy 88 31 72 22 59 59 W 8 13 30.03 1017 10 16 0.00 0.00
12:15 pm 12:15 Mostly Cloudy 86 30 72 22 62 62 NW 5 7 30.06 1018 10 16 0.00 0.00
12:35 pm 12:35 Mostly Cloudy 88 31 72 22 59 59 Calm 30.03 1017 10 16 0.00 0.00
12:55 pm 12:55 Mostly Cloudy 88 31 73 23 62 62 Calm 30.03 1017 10 16 0.00 0.00
1:15 pm 13:15 Partly Cloudy 90 32 73 23 59 59 W 3 6 30.03 1017 10 16 0.00 0.00
1:55 pm 13:55 Mostly Cloudy 90 32 73 23 59 59 WSW 3 6 30.03 1017 10 16 0.00 0.00
2:15 pm 14:15 Partly Cloudy 90 32 73 23 59 59 Calm 30.03 1017 10 16 0.00 0.00
2:35 pm 14:35 Mostly Cloudy 90 32 73 23 59 59 SW 10 17 30.00 1016 10 16 0.00 0.00
2:55 pm 14:55 Partly Cloudy 91 33 73 23 56 56 SSW 6 9 30.00 1016 10 16 0.00 0.00
3:15 pm 15:15 Sunny 90 32 73 23 59 59 WSW 8 13 30.00 1016 10 16 0.00 0.00
3:35 pm 15:35 Sunny with Nearby Thunderstorms 90 32 73 23 59 59 SSW 5 7 29.97 1015 10 16 0.00 0.00
3:55 pm 15:55 Partly Cloudy with Nearby Thunderstorms 91 33 73 23 56 56 Calm 30.00 1016 10 16 0.00 0.00
4:15 pm 16:15 Mostly Cloudy with Nearby Thunderstorms 88 31 73 23 62 62 W 3 6 30.00 1016 10 16 0.00 0.00
4:35 pm 16:35 Cloudy 79 26 75 24 89 89 N 8 13 30.06 1018 2 3 0.25 6.35
4:55 pm 16:55 Mostly Cloudy with Nearby Thunderstorms 79 26 77 25 94 94 SSW 10 17 30.06 1018 10 16 0.36 9.14
5:15 pm 17:15 Mostly Cloudy with Light Rain 81 27 79 26 94 94 S 5 7 30.03 1017 10 16 0.01 0.25
5:35 pm 17:35 Partly Cloudy 81 27 77 25 89 89 Calm 30.03 1017 10 16 0.01 0.25
5:55 pm 17:55 Partly Cloudy 82 28 77 25 84 84 Calm 30.03 1017 10 16 0.01 0.25
6:15 pm 18:15 Partly Cloudy 81 27 77 25 89 89 Calm 30.03 1017 10 16 0.00 0.00
6:35 pm 18:35 Sunny 82 28 79 26 89 89 WSW 6 9 30.03 1017 10 16 0.00 0.00
6:55 pm 18:55 Sunny 82 28 77 25 84 84 SSW 13 20 30.03 1017 10 16 0.00 0.00
7:15 pm 19:15 Sunny 82 28 77 25 84 84 SSW 12 19 30.03 1017 10 16 0.00 0.00
7:35 pm 19:35 Sunny 82 28 77 25 84 84 SSW 3 6 30.03 1017 10 16 0.00 0.00
7:55 pm 19:55 Sunny 81 27 77 25 89 89 SSW 3 6 30.03 1017 10 16 0.00 0.00
8:15 pm 20:15 Sunny 81 27 77 25 89 89 SW 6 9 30.00 1016 10 16 0.00 0.00
8:35 pm 20:35 Sunny 81 27 77 25 89 89 WSW 6 9 30.00 1016 10 16 0.00 0.00
8:55 pm 20:55 Clear 81 27 77 25 89 89 WSW 5 7 30.00 1016 10 16 0.00 0.00
9:15 pm 21:15 Clear 79 26 77 25 94 94 Calm 30.03 1017 10 16 0.00 0.00
9:35 pm 21:35 Clear 79 26 77 25 94 94 Calm 30.03 1017 10 16 0.00 0.00
9:55 pm 21:55 Clear 79 26 77 25 94 94 SSE 5 7 30.03 1017 10 16 0.00 0.00
10:15 pm 22:15 Clear 79 26 77 25 94 94 SSW 12 19 30.03 1017 10 16 0.00 0.00
10:35 pm 22:35 Clear 77 25 77 25 100 100 SSW 12 19 30.03 1017 10 16 0.00 0.00
10:55 pm 22:55 Partly Cloudy 79 26 77 25 94 94 S 3 6 30.03 1017 10 16 0.00 0.00
11:15 pm 23:15 Mostly Cloudy 79 26 77 25 94 94 Calm 30.03 1017 10 16 0.00 0.00
11:35 pm 23:35 Mostly Cloudy 79 26 77 25 94 94 SSW 12 19 30.06 1018 10 16 0.00 0.00
11:55 pm 23:55 Partly Cloudy 77 25 77 25 100 100 SSW 12 19 30.03 1017 10 16 0.00 0.00

Powered by AerisWeather